Location: *
(57.8420°S, 159.8600°W)
Time: 04:08:11
(UTC+00:00)

NOSS 3-2 (A) - Pass Details

Date: 18 May 2021
Orbit: 776 x 1432 km, 63.4° (Epoch: 22 June)

Event Time Altitude Azimuth Distance (km) Brightness Sun altitude
Rises 04:14:52 0° 287° (WNW) 4,368 8.9 -13.8°
Reaches altitude 10° 04:17:56 10° 284° (WNW) 3,325 7.7 -14.2°
Maximum altitude 04:25:56 67° 201° (SSW) 1,262 4.1 -15.2°
Enters shadow 04:30:55 20° 122° (ESE) 2,238 4.8 -15.8°
